Regional Weather Roundup
Issued by NWS

Home | Current Version | Previous Version | Graphics & Text | Print | Product List | Glossary On
Versions: 1 2 3 4 5 6 7 8 9 10 11 12 13 14 15 16 17 18 19 20 21 22 23 24 25 26 27 28 29 30 31 32 33 34 35 36 37 38 39 40 41 42 43 44 45 46 47 48 49 50
519
ASUS45 KBOU 010907
RWRCO

WEATHER ROUNDUP FOR COLORADO
NATIONAL WEATHER SERVICE DENVER/BOULDER CO
300 AM MDT SUN MAY 01 2016

NOTE: "FAIR" INDICATES FEW OR NO CLOUDS BELOW 12000 FEET WITH NO
SIGNIFICANT WEATHER AND/OR OBSTRUCTIONS TO VISIBILITY.

COZ001>005-013-030-031-011000-
...NORTHWEST COLORADO...

CITY           SKY/WX    TMP DP  RH WIND       PRES   REMARKS
CRAIG          FAIR      35  22  58 E10       30.12R WCI  27
HAYDEN         FAIR      34  19  55 E10       30.12R WCI  26
MEEKER         FAIR      36  23  59 E7        30.05R
MOUNT WERNER   NOT AVBL
STEAMBOAT SPGS FAIR      33  19  56 E15G26    30.12S WCI  22
WALDEN         CLOUDY    28  21  74 N8        30.19S WCI  20
$$

COZ006>008-011-011000-
...WEST CENTRAL VALLEYS...

CITY           SKY/WX    TMP DP  RH WIND       PRES   REMARKS
GRAND JUNCTION FAIR      45  27  49 NW6       29.95F
MONTROSE       FAIR      34  29  82 SE5       29.99S WCI  30
EAGLE          FAIR      36  27  69 S5        30.12R
RIFLE          MOCLDY    38  29  70 N5        30.03R
DELTA          NOT AVBL
NUCLA          NOT AVBL
$$

COZ017>023-064>068-011000-
...SOUTHWEST COLORADO...

CITY           SKY/WX    TMP DP  RH WIND       PRES   REMARKS
DURANGO        CLOUDY    38  32  79 NE6       29.94F
CORTEZ         MOCLDY    34  32  92 CALM      29.90F
PAGOSA SPRINGS CLOUDY    39  29  66 CALM      29.99S
TELLURIDE      FAIR      30  27  88 CALM      29.99S
WOLF CREEK PAS FOG       19  19 100 NE17      30.09F VSB 3/4 WCI   4
$$

COZ009-010-012-014-032>034-037-058>063-011000-
...CENTRAL COLORADO...

CITY           SKY/WX    TMP DP  RH WIND       PRES   REMARKS
ASPEN          CLOUDY    35  20  54 SE9       30.05R WCI  28
BUENA VISTA    CLOUDY    28  22  76 NE3       30.17S
COPPER MTN     NOT AVBL
BERTHOUD PASS  CLOUDY     9   0  66 SE17G28   30.14R WCI -10
COTTONWOOD PAS CLOUDY    25  19  80 E3        30.16S
GUNNISON       CLOUDY    34  19  55 E14       30.07S WCI  24
KREMMLING      FAIR      30  21  69 CALM      30.16S
LEADVILLE      CLOUDY    19  17  92 S8        30.12R WCI   9
SALIDA         CLOUDY    31  25  77 SE3       30.25S
SUNLIGHT       CLOUDY   N/A N/A N/A NE7       30.10R
WILKERSON PASS LGT SNOW N/A N/A N/A NE6       30.16F
$$

COZ069>075-011000-
...SAN LUIS VALLEY/SANGRE DE CRISTO MOUNTAINS...

CITY           SKY/WX    TMP DP  RH WIND       PRES   REMARKS
ALAMOSA        CLOUDY    32  25  75 SE10      30.06S WCI  24
LA VETA PASS   SNOW      21  18  86 MISG      30.12F VSB 1/2
SAGUACHE       CLOUDY    34  19  55 N5        30.08R WCI  30
$$

COZ035-036-038>040-011000-
...NORTHERN COLORADO FRONT RANGE...

CITY           SKY/WX    TMP DP  RH WIND       PRES   REMARKS
DENVER INTL AP LGT SNOW  34  28  79 N18       30.20S WCI  23
DMNS CITY PARK   N/A     35  30  83 N7G17     30.23S WCI  29
AURORA         LGT RAIN  32  32 100 NW13      30.22R WCI  22
FRONT RANGE AP NOT AVBL
ERIE MUNI ARPT LGT RAIN  36  32  86 N9        30.23S
BOULDER MUN AP CLOUDY    36  32  87 N8        30.23S
CENTENNIAL     FLURRIES  32  29  88 N14       30.20S WCI  22
BROOMFIELD     CLOUDY    34  32  93 N13       30.23R WCI  25
FORT COLLINS   MOCLDY    36  28  75 N15       30.24S
LONGMONT       CLOUDY    39  32  75 N12       30.26R
$$

COZ041-046-047-076>085-087-088-011000-
...PIKES PEAK/PALMER DIVIDE AND SOUTHERN FOOTHILLS...

CITY           SKY/WX    TMP DP  RH WIND       PRES   REMARKS
COLO. SPRINGS  LGT SNOW  32  27  81 NW16G26   30.18F FOG     WCI  21
A. F. ACADEMY  MIX PCPN  32  27  80 NW17G23   30.17S WCI  21
SCHRIEVER AFB  NOT AVBL
ELLICOTT       NOT AVBL
FALCON         CLOUDY    29  27  90 NW17G26   30.16F WCI  17
FORT CARSON    CLOUDY    36  27  69 N22G30    30.15F
LIMON          CLOUDY    32  30  92 N29G43    30.13R WCI  18
MONUMENT HILL  CLOUDY    27  27 100 N21G26    30.19R FOG     WCI  13
TRINIDAD       CLOUDY    33  29  85 CALM      30.17F
$$

COZ042>045-048>051-090-091-011000-
...NORTHEAST COLORADO...

CITY           SKY/WX    TMP DP  RH WIND       PRES   REMARKS
GREELEY ARPT   MOCLDY    36  30  80 N14       30.23S
AKRON          LGT SNOW  32  30  92 N23       30.14S FOG     WCI  19
BURLINGTON     CLOUDY    34  30  85 N22G30    30.09R WCI  22
WRAY           NOT AVBL
STERLING       CLOUDY    36  34  93 N18G24    30.17R
HOLYOKE        NOT AVBL
FORT MORGAN    CLOUDY    35  32  90 N20G29    30.18S WCI  24
$$

COZ086-089-092>099-011000-
...SOUTHEAST COLORADO...

CITY           SKY/WX    TMP DP  RH WIND       PRES   REMARKS
PUEBLO         FAIR      39  29  67 N14       30.17S
LA JUNTA       MOCLDY    39  31  72 NW16      30.16F
LAMAR          CLOUDY    41  33  73 NW17      30.10F
SPRINGFIELD      N/A     37  31  78 NW24G32   30.09R
$$




USA.gov is the U.S. government's official web portal to all federal, state and local government web resources and services.